Time,TemperatureF,DewpointF,PressureIn,WindDirection,WindDirectionDegrees,WindSpeedMPH,WindSpeedGustMPH,Humidity,HourlyPrecipIn,Conditions,Clouds,dailyrainin,SoftwareType,DateUTC
2013-08-05 00:01:00,50.6,49.2,29.99,SSE,147,0.0,12.0,95,0.00,,,0.31,Wunderground v.1.15,2013-08-05 04:01:00,
2013-08-05 00:02:00,50.6,49.2,29.99,SE,146,0.0,12.0,95,0.00,,,0.00,Wunderground v.1.15,2013-08-05 04:02:00,
2013-08-05 00:05:00,50.4,49.0,29.99,SE,146,0.0,12.0,95,0.00,,,0.00,Wunderground v.1.15,2013-08-05 04:05:00,
2013-08-05 00:06:00,50.4,49.0,29.99,SE,146,0.0,12.0,95,0.00,,,0.00,Wunderground v.1.15,2013-08-05 04:06:00,
2013-08-05 00:13:00,50.0,48.6,29.99,SE,146,0.0,12.0,95,0.00,,,0.00,Wunderground v.1.15,2013-08-05 04:13:00,
2013-08-05 00:18:00,49.7,48.3,29.99,SSW,205,0.0,12.0,95,0.00,,,0.00,Wunderground v.1.15,2013-08-05 04:18:00,
2013-08-05 00:23:00,49.5,48.1,29.99,SSW,205,0.0,12.0,95,0.00,,,0.00,Wunderground v.1.15,2013-08-05 04:23:00,
2013-08-05 00:28:00,49.3,47.9,29.99,SSW,205,0.0,12.0,95,0.00,,,0.00,Wunderground v.1.15,2013-08-05 04:28:00,
2013-08-05 00:33:00,49.3,48.2,29.99,SSW,205,0.0,12.0,96,0.00,,,0.00,Wunderground v.1.15,2013-08-05 04:33:00,
2013-08-05 00:39:00,49.7,48.6,29.99,SSW,205,0.0,12.0,96,0.00,,,0.00,Wunderground v.1.15,2013-08-05 04:39:00,
2013-08-05 00:44:00,49.9,49.1,29.99,SSW,205,0.0,12.0,97,0.00,,,0.00,Wunderground v.1.15,2013-08-05 04:44:00,
2013-08-05 00:49:00,50.4,49.6,29.99,South,190,0.0,12.0,97,0.00,,,0.00,Wunderground v.1.15,2013-08-05 04:49:00,
2013-08-05 00:55:00,50.9,50.1,29.99,SSW,193,0.0,12.0,97,0.00,,,0.00,Wunderground v.1.15,2013-08-05 04:55:00,
2013-08-05 01:01:00,51.4,50.6,30.00,NW,312,0.0,12.0,97,0.00,,,0.00,Wunderground v.1.15,2013-08-05 05:01:00,
2013-08-05 01:06:00,51.3,50.2,30.00,NNE,13,1.0,12.0,96,0.00,,,0.00,Wunderground v.1.15,2013-08-05 05:06:00,
2013-08-05 01:11:00,51.1,50.0,30.00,NNE,13,0.0,12.0,96,0.00,,,0.00,Wunderground v.1.15,2013-08-05 05:11:00,
2013-08-05 01:16:00,51.2,50.1,30.00,NE,43,0.0,12.0,96,0.00,,,0.00,Wunderground v.1.15,2013-08-05 05:16:00,
2013-08-05 01:20:00,51.6,50.5,30.00,WNW,284,1.0,12.0,96,0.00,,,0.00,Wunderground v.1.15,2013-08-05 05:20:00,
2013-08-05 01:27:00,51.7,50.6,30.00,WNW,283,0.0,12.0,96,0.00,,,0.00,Wunderground v.1.15,2013-08-05 05:27:00,
2013-08-05 01:32:00,51.9,50.8,30.00,WNW,283,0.0,12.0,96,0.00,,,0.00,Wunderground v.1.15,2013-08-05 05:32:00,
2013-08-05 01:36:00,51.9,50.8,30.00,WNW,283,0.0,12.0,96,0.00,,,0.00,Wunderground v.1.15,2013-08-05 05:36:00,
2013-08-05 01:42:00,51.9,50.8,30.00,WNW,284,0.0,12.0,96,0.00,,,0.00,Wunderground v.1.15,2013-08-05 05:42:00,
2013-08-05 01:47:00,51.7,50.3,30.00,WNW,283,0.0,12.0,95,0.00,,,0.00,Wunderground v.1.15,2013-08-05 05:47:00,
2013-08-05 01:53:00,51.4,50.0,30.00,WNW,283,0.0,12.0,95,0.00,,,0.00,Wunderground v.1.15,2013-08-05 05:53:00,
2013-08-05 01:58:00,51.2,49.8,30.00,WNW,283,0.0,12.0,95,0.00,,,0.00,Wunderground v.1.15,2013-08-05 05:58:00,
2013-08-05 02:03:00,51.0,49.9,30.00,WNW,284,0.0,12.0,96,0.00,,,0.00,Wunderground v.1.15,2013-08-05 06:03:00,
2013-08-05 02:07:00,50.8,49.7,30.00,WNW,283,0.0,12.0,96,0.00,,,0.00,Wunderground v.1.15,2013-08-05 06:07:00,
2013-08-05 02:12:00,50.7,49.6,30.00,WNW,283,0.0,12.0,96,0.00,,,0.00,Wunderground v.1.15,2013-08-05 06:12:00,
2013-08-05 02:18:00,50.8,49.7,30.01,WNW,284,0.0,12.0,96,0.00,,,0.00,Wunderground v.1.15,2013-08-05 06:18:00,
2013-08-05 02:23:00,50.8,49.7,30.01,WNW,284,0.0,12.0,96,0.00,,,0.00,Wunderground v.1.15,2013-08-05 06:23:00,
2013-08-05 02:28:00,50.9,49.8,30.01,WNW,284,0.0,12.0,96,0.00,,,0.00,Wunderground v.1.15,2013-08-05 06:28:00,
2013-08-05 02:32:00,50.8,49.7,30.01,WNW,284,0.0,12.0,96,0.00,,,0.00,Wunderground v.1.15,2013-08-05 06:32:00,
2013-08-05 02:37:00,50.5,49.4,30.01,WNW,283,0.0,12.0,96,0.00,,,0.00,Wunderground v.1.15,2013-08-05 06:37:00,
2013-08-05 02:43:00,50.2,49.1,30.01,WNW,284,0.0,12.0,96,0.00,,,0.00,Wunderground v.1.15,2013-08-05 06:43:00,
2013-08-05 02:48:00,49.9,48.8,30.01,WNW,284,0.0,12.0,96,0.00,,,0.00,Wunderground v.1.15,2013-08-05 06:48:00,
2013-08-05 02:54:00,49.4,48.3,30.01,WNW,283,0.0,12.0,96,0.00,,,0.00,Wunderground v.1.15,2013-08-05 06:54:00,
2013-08-05 02:59:00,49.2,48.1,30.01,WNW,284,0.0,12.0,96,0.00,,,0.00,Wunderground v.1.15,2013-08-05 06:59:00,
2013-08-05 03:04:00,49.0,47.9,30.01,WNW,284,0.0,12.0,96,0.00,,,0.00,Wunderground v.1.15,2013-08-05 07:04:00,
2013-08-05 03:09:00,48.7,47.6,30.01,WNW,284,0.0,12.0,96,0.00,,,0.00,Wunderground v.1.15,2013-08-05 07:09:00,
2013-08-05 03:14:00,48.7,47.9,30.01,WNW,284,0.0,12.0,97,0.00,,,0.00,Wunderground v.1.15,2013-08-05 07:14:00,
2013-08-05 03:20:00,48.4,47.6,30.02,WNW,283,0.0,12.0,97,0.00,,,0.00,Wunderground v.1.15,2013-08-05 07:20:00,
2013-08-05 03:24:00,47.9,46.8,30.02,WNW,284,0.0,12.0,96,0.00,,,0.00,Wunderground v.1.15,2013-08-05 07:24:00,
2013-08-05 03:30:00,47.8,47.0,30.01,WNW,283,0.0,12.0,97,0.00,,,0.00,Wunderground v.1.15,2013-08-05 07:30:00,
2013-08-05 03:35:00,47.4,46.3,30.01,WNW,284,0.0,12.0,96,0.00,,,0.00,Wunderground v.1.15,2013-08-05 07:35:00,
2013-08-05 03:40:00,47.3,46.5,30.02,WNW,283,0.0,12.0,97,0.00,,,0.00,Wunderground v.1.15,2013-08-05 07:40:00,
2013-08-05 03:46:00,47.0,46.2,30.02,WNW,284,0.0,12.0,97,0.00,,,0.00,Wunderground v.1.15,2013-08-05 07:46:00,
2013-08-05 03:51:00,46.6,45.8,30.02,WNW,283,0.0,12.0,97,0.00,,,0.00,Wunderground v.1.15,2013-08-05 07:51:00,
2013-08-05 03:56:00,46.1,45.0,30.02,WNW,284,0.0,12.0,96,0.00,,,0.00,Wunderground v.1.15,2013-08-05 07:56:00,
2013-08-05 04:01:00,46.0,45.2,30.02,WNW,284,0.0,12.0,97,0.00,,,0.00,Wunderground v.1.15,2013-08-05 08:01:00,
2013-08-05 04:06:00,46.5,45.7,30.02,WNW,284,0.0,12.0,97,0.00,,,0.00,Wunderground v.1.15,2013-08-05 08:06:00,
2013-08-05 04:12:00,46.4,45.6,30.02,WNW,284,0.0,12.0,97,0.00,,,0.00,Wunderground v.1.15,2013-08-05 08:12:00,
2013-08-05 04:17:00,46.0,45.2,30.02,WNW,284,0.0,12.0,97,0.00,,,0.00,Wunderground v.1.15,2013-08-05 08:17:00,
2013-08-05 04:21:00,45.8,45.0,30.02,WNW,284,0.0,12.0,97,0.00,,,0.00,Wunderground v.1.15,2013-08-05 08:21:00,
2013-08-05 04:27:00,45.7,44.9,30.02,WNW,284,0.0,12.0,97,0.00,,,0.00,Wunderground v.1.15,2013-08-05 08:27:00,
2013-08-05 04:32:00,45.5,44.7,30.02,WNW,284,0.0,12.0,97,0.00,,,0.00,Wunderground v.1.15,2013-08-05 08:32:00,
2013-08-05 04:37:00,45.2,44.4,30.02,WNW,284,0.0,12.0,97,0.00,,,0.00,Wunderground v.1.15,2013-08-05 08:37:00,
2013-08-05 04:42:00,45.0,44.2,30.02,WNW,284,0.0,12.0,97,0.00,,,0.00,Wunderground v.1.15,2013-08-05 08:42:00,
2013-08-05 04:48:00,44.5,43.7,30.03,WNW,284,0.0,12.0,97,0.00,,,0.00,Wunderground v.1.15,2013-08-05 08:48:00,
2013-08-05 04:54:00,44.2,43.4,30.03,WNW,284,0.0,12.0,97,0.00,,,0.00,Wunderground v.1.15,2013-08-05 08:54:00,
2013-08-05 04:59:00,44.5,44.0,30.03,WNW,284,0.0,12.0,98,0.00,,,0.00,Wunderground v.1.15,2013-08-05 08:59:00,
2013-08-05 05:03:00,44.5,44.0,30.03,WNW,284,0.0,12.0,98,0.00,,,0.00,Wunderground v.1.15,2013-08-05 09:03:00,
2013-08-05 05:08:00,44.2,43.7,30.03,WNW,284,0.0,12.0,98,0.00,,,0.00,Wunderground v.1.15,2013-08-05 09:08:00,
2013-08-05 05:15:00,44.4,43.9,30.04,WNW,284,0.0,12.0,98,0.00,,,0.00,Wunderground v.1.15,2013-08-05 09:15:00,
2013-08-05 05:20:00,44.2,43.7,30.04,WNW,284,0.0,12.0,98,0.00,,,0.00,Wunderground v.1.15,2013-08-05 09:20:00,
2013-08-05 05:26:00,44.1,43.6,30.04,WNW,284,0.0,12.0,98,0.00,,,0.00,Wunderground v.1.15,2013-08-05 09:26:00,
2013-08-05 05:31:00,44.2,43.7,30.04,WNW,284,0.0,12.0,98,0.00,,,0.00,Wunderground v.1.15,2013-08-05 09:31:00,
2013-08-05 05:37:00,44.4,43.9,30.05,WNW,284,0.0,12.0,98,0.00,,,0.00,Wunderground v.1.15,2013-08-05 09:37:00,
2013-08-05 05:42:00,44.5,44.0,30.05,WNW,284,0.0,12.0,98,0.00,,,0.00,Wunderground v.1.15,2013-08-05 09:42:00,
2013-08-05 05:46:00,44.6,44.1,30.05,WNW,284,0.0,12.0,98,0.00,,,0.00,Wunderground v.1.15,2013-08-05 09:46:00,
2013-08-05 05:51:00,44.4,43.9,30.05,WNW,284,0.0,12.0,98,0.00,,,0.00,Wunderground v.1.15,2013-08-05 09:51:00,
2013-08-05 05:57:00,44.4,43.9,30.05,WNW,284,0.0,12.0,98,0.00,,,0.00,Wunderground v.1.15,2013-08-05 09:57:00,
2013-08-05 06:02:00,44.4,43.9,30.05,WNW,284,0.0,12.0,98,0.00,,,0.00,Wunderground v.1.15,2013-08-05 10:02:00,
2013-08-05 06:08:00,44.4,43.9,30.05,WNW,284,0.0,12.0,98,0.00,,,0.00,Wunderground v.1.15,2013-08-05 10:08:00,
2013-08-05 06:12:00,44.5,44.0,30.06,WNW,284,0.0,12.0,98,0.00,,,0.00,Wunderground v.1.15,2013-08-05 10:12:00,
2013-08-05 06:18:00,44.5,44.0,30.06,WNW,283,0.0,12.0,98,0.00,,,0.00,Wunderground v.1.15,2013-08-05 10:18:00,
2013-08-05 06:23:00,44.2,43.7,30.06,WNW,284,0.0,12.0,98,0.00,,,0.00,Wunderground v.1.15,2013-08-05 10:23:00,
2013-08-05 06:28:00,44.4,43.9,30.06,WNW,284,0.0,12.0,98,0.00,,,0.00,Wunderground v.1.15,2013-08-05 10:28:00,
2013-08-05 06:33:00,44.5,44.0,30.06,WNW,284,0.0,12.0,98,0.00,,,0.00,Wunderground v.1.15,2013-08-05 10:33:00,
2013-08-05 06:39:00,44.4,43.9,30.06,WNW,284,0.0,12.0,98,0.00,,,0.00,Wunderground v.1.15,2013-08-05 10:39:00,
2013-08-05 06:43:00,44.4,43.9,30.06,WNW,284,0.0,12.0,98,0.00,,,0.00,Wunderground v.1.15,2013-08-05 10:43:00,
2013-08-05 06:49:00,44.5,44.0,30.06,WNW,284,0.0,12.0,98,0.00,,,0.00,Wunderground v.1.15,2013-08-05 10:49:00,
2013-08-05 06:54:00,44.4,43.9,30.06,WNW,284,0.0,12.0,98,0.00,,,0.00,Wunderground v.1.15,2013-08-05 10:54:00,
2013-08-05 06:59:00,44.5,44.0,30.07,WNW,284,0.0,12.0,98,0.00,,,0.00,Wunderground v.1.15,2013-08-05 10:59:00,
2013-08-05 07:04:00,44.7,44.2,30.07,WNW,284,0.0,12.0,98,0.00,,,0.00,Wunderground v.1.15,2013-08-05 11:04:00,
2013-08-05 07:09:00,45.7,45.2,30.07,WNW,284,0.0,12.0,98,0.00,,,0.00,Wunderground v.1.15,2013-08-05 11:09:00,
2013-08-05 07:14:00,46.5,46.0,30.07,WNW,284,0.0,12.0,98,0.00,,,0.00,Wunderground v.1.15,2013-08-05 11:14:00,
2013-08-05 07:19:00,47.1,46.6,30.07,WNW,284,0.0,12.0,98,0.00,,,0.00,Wunderground v.1.15,2013-08-05 11:19:00,
2013-08-05 07:24:00,47.5,47.0,30.07,WNW,284,0.0,12.0,98,0.00,,,0.00,Wunderground v.1.15,2013-08-05 11:24:00,
2013-08-05 07:30:00,48.5,48.0,30.07,WNW,283,0.0,12.0,98,0.00,,,0.00,Wunderground v.1.15,2013-08-05 11:30:00,
2013-08-05 07:34:00,48.9,48.4,30.07,WNW,283,0.0,12.0,98,0.00,,,0.00,Wunderground v.1.15,2013-08-05 11:34:00,
2013-08-05 07:40:00,49.2,48.7,30.07,WNW,284,0.0,12.0,98,0.00,,,0.00,Wunderground v.1.15,2013-08-05 11:40:00,
2013-08-05 07:44:00,49.5,49.0,30.08,North,6,0.0,12.0,98,0.00,,,0.00,Wunderground v.1.15,2013-08-05 11:44:00,
2013-08-05 07:50:00,49.6,49.1,30.07,North,6,0.0,12.0,98,0.00,,,0.00,Wunderground v.1.15,2013-08-05 11:50:00,
2013-08-05 07:55:00,49.9,49.4,30.07,North,7,0.0,12.0,98,0.00,,,0.00,Wunderground v.1.15,2013-08-05 11:55:00,
2013-08-05 08:00:00,50.1,49.6,30.07,NW,318,0.0,12.0,98,0.00,,,0.00,Wunderground v.1.15,2013-08-05 12:00:00,
2013-08-05 08:04:00,50.4,49.9,30.07,NNE,23,1.0,12.0,98,0.00,,,0.00,Wunderground v.1.15,2013-08-05 12:04:00,
2013-08-05 08:09:00,50.7,50.2,30.08,WNW,302,1.0,1.0,98,0.00,,,0.00,Wunderground v.1.15,2013-08-05 12:09:00,
2013-08-05 08:15:00,50.9,50.4,30.07,NNW,334,1.0,12.0,98,0.00,,,0.00,Wunderground v.1.15,2013-08-05 12:15:00,
2013-08-05 08:19:00,51.1,50.6,30.07,SW,226,2.0,12.0,98,0.00,,,0.00,Wunderground v.1.15,2013-08-05 12:19:00,
2013-08-05 08:24:00,51.5,50.7,30.08,WNW,293,2.0,12.0,97,0.00,,,0.00,Wunderground v.1.15,2013-08-05 12:24:00,
2013-08-05 08:30:00,51.9,51.1,30.08,SSW,211,2.0,2.0,97,0.00,,,0.00,Wunderground v.1.15,2013-08-05 12:30:00,
2013-08-05 08:35:00,52.6,51.2,30.08,NW,313,2.0,12.0,95,0.00,,,0.00,Wunderground v.1.15,2013-08-05 12:35:00,
2013-08-05 08:40:00,53.0,51.0,30.08,West,271,1.0,12.0,93,0.00,,,0.00,Wunderground v.1.15,2013-08-05 12:40:00,
2013-08-05 08:45:00,53.5,50.9,30.08,NNE,12,1.0,12.0,91,0.00,,,0.00,Wunderground v.1.15,2013-08-05 12:45:00,
2013-08-05 08:52:00,54.3,51.4,30.08,WNW,301,1.0,12.0,90,0.00,,,0.00,Wunderground v.1.15,2013-08-05 12:52:00,
2013-08-05 08:57:00,54.6,51.1,30.08,NNE,19,1.0,12.0,88,0.00,,,0.00,Wunderground v.1.15,2013-08-05 12:57:00,
2013-08-05 09:03:00,55.1,50.7,30.08,WNW,300,1.0,12.0,85,0.00,,,0.00,Wunderground v.1.15,2013-08-05 13:03:00,
2013-08-05 09:07:00,55.6,51.5,30.08,North,351,1.0,12.0,86,0.00,,,0.00,Wunderground v.1.15,2013-08-05 13:07:00,
2013-08-05 09:13:00,56.1,50.7,30.08,NNE,20,1.0,12.0,82,0.00,,,0.00,Wunderground v.1.15,2013-08-05 13:13:00,
2013-08-05 09:18:00,56.3,49.9,30.08,West,278,1.0,12.0,79,0.00,,,0.00,Wunderground v.1.15,2013-08-05 13:18:00,
2013-08-05 09:24:00,56.8,50.0,30.08,NW,314,2.0,12.0,78,0.00,,,0.00,Wunderground v.1.15,2013-08-05 13:24:00,
2013-08-05 09:28:00,57.5,50.3,30.08,WNW,282,2.0,12.0,77,0.00,,,0.00,Wunderground v.1.15,2013-08-05 13:28:00,
2013-08-05 09:34:00,57.7,49.5,30.08,WNW,288,2.0,12.0,74,0.00,,,0.00,Wunderground v.1.15,2013-08-05 13:34:00,
2013-08-05 09:40:00,57.9,49.3,30.08,WNW,300,3.0,3.0,73,0.00,,,0.00,Wunderground v.1.15,2013-08-05 13:40:00,
2013-08-05 09:46:00,58.2,48.5,30.09,WNW,282,3.0,12.0,70,0.00,,,0.00,Wunderground v.1.15,2013-08-05 13:46:00,
2013-08-05 09:51:00,58.7,49.7,30.08,West,278,3.0,12.0,72,0.00,,,0.00,Wunderground v.1.15,2013-08-05 13:51:00,
2013-08-05 09:56:00,59.1,50.1,30.09,NW,321,2.0,12.0,72,0.00,,,0.00,Wunderground v.1.15,2013-08-05 13:56:00,
2013-08-05 10:01:00,58.8,48.3,30.09,North,359,3.0,12.0,68,0.00,,,0.00,Wunderground v.1.15,2013-08-05 14:01:00,
2013-08-05 10:07:00,58.2,48.8,30.08,NNW,333,3.0,12.0,71,0.00,,,0.00,Wunderground v.1.15,2013-08-05 14:07:00,
2013-08-05 10:12:00,58.7,50.1,30.08,NW,316,2.0,12.0,73,0.00,,,0.00,Wunderground v.1.15,2013-08-05 14:12:00,
2013-08-05 10:17:00,59.3,48.7,30.08,WNW,295,2.0,12.0,68,0.00,,,0.00,Wunderground v.1.15,2013-08-05 14:17:00,
2013-08-05 10:22:00,59.9,49.7,30.08,NW,323,3.0,12.0,69,0.00,,,0.00,Wunderground v.1.15,2013-08-05 14:22:00,
2013-08-05 10:26:00,60.6,49.2,30.09,West,280,3.0,12.0,66,0.00,,,0.00,Wunderground v.1.15,2013-08-05 14:26:00,
2013-08-05 10:32:00,61.0,48.7,30.08,North,356,3.0,12.0,64,0.00,,,0.00,Wunderground v.1.15,2013-08-05 14:32:00,
2013-08-05 10:36:00,61.4,49.9,30.08,North,360,3.0,12.0,66,0.00,,,0.00,Wunderground v.1.15,2013-08-05 14:36:00,
2013-08-05 10:41:00,62.0,49.7,30.08,NW,311,3.0,12.0,64,0.00,,,0.00,Wunderground v.1.15,2013-08-05 14:41:00,
2013-08-05 10:47:00,62.4,50.9,30.08,West,271,3.0,12.0,66,0.00,,,0.00,Wunderground v.1.15,2013-08-05 14:47:00,
2013-08-05 10:52:00,62.2,49.0,30.08,NW,306,3.0,12.0,62,0.00,,,0.00,Wunderground v.1.15,2013-08-05 14:52:00,
2013-08-05 10:58:00,62.1,48.9,30.08,NNE,13,3.0,12.0,62,0.00,,,0.00,Wunderground v.1.15,2013-08-05 14:58:00,
2013-08-05 11:04:00,62.8,48.3,30.08,NW,324,3.0,12.0,59,0.00,,,0.00,Wunderground v.1.15,2013-08-05 15:04:00,
2013-08-05 11:09:00,62.8,47.3,30.08,WNW,287,3.0,12.0,57,0.00,,,0.00,Wunderground v.1.15,2013-08-05 15:09:00,
2013-08-05 11:14:00,63.0,48.4,30.08,NW,304,3.0,12.0,59,0.00,,,0.00,Wunderground v.1.15,2013-08-05 15:14:00,
2013-08-05 11:19:00,63.6,49.9,30.08,West,280,2.0,12.0,61,0.00,,,0.00,Wunderground v.1.15,2013-08-05 15:19:00,
2013-08-05 11:25:00,64.1,48.5,30.08,NNE,15,2.0,12.0,57,0.00,,,0.00,Wunderground v.1.15,2013-08-05 15:25:00,
2013-08-05 11:30:00,64.4,48.4,30.08,West,281,3.0,12.0,56,0.00,,,0.00,Wunderground v.1.15,2013-08-05 15:30:00,
2013-08-05 11:35:00,64.3,48.3,30.08,NNW,330,3.0,12.0,56,0.00,,,0.00,Wunderground v.1.15,2013-08-05 15:35:00,
2013-08-05 11:40:00,64.1,49.0,30.07,North,6,3.0,12.0,58,0.00,,,0.00,Wunderground v.1.15,2013-08-05 15:40:00,
2013-08-05 11:45:00,64.0,48.0,30.08,NW,304,3.0,12.0,56,0.00,,,0.00,Wunderground v.1.15,2013-08-05 15:45:00,
2013-08-05 11:51:00,64.1,48.5,30.07,NW,319,3.0,12.0,57,0.00,,,0.00,Wunderground v.1.15,2013-08-05 15:51:00,
2013-08-05 11:56:00,64.4,48.4,30.08,WNW,299,3.0,12.0,56,0.00,,,0.00,Wunderground v.1.15,2013-08-05 15:56:00,
2013-08-05 12:03:00,64.2,46.7,30.07,West,279,3.0,12.0,53,0.00,,,0.00,Wunderground v.1.15,2013-08-05 16:03:00,
2013-08-05 12:09:00,64.3,47.8,30.07,North,354,4.0,12.0,55,0.00,,,0.00,Wunderground v.1.15,2013-08-05 16:09:00,
2013-08-05 12:14:00,65.2,50.5,30.07,North,356,3.0,12.0,59,0.00,,,0.00,Wunderground v.1.15,2013-08-05 16:14:00,
2013-08-05 12:19:00,65.2,48.6,30.07,West,267,3.0,12.0,55,0.00,,,0.00,Wunderground v.1.15,2013-08-05 16:19:00,
2013-08-05 12:24:00,65.5,51.7,30.06,NNW,337,3.0,12.0,61,0.00,,,0.00,Wunderground v.1.15,2013-08-05 16:24:00,
2013-08-05 12:29:00,66.1,49.5,30.07,NW,316,3.0,12.0,55,0.00,,,0.00,Wunderground v.1.15,2013-08-05 16:29:00,
2013-08-05 12:34:00,66.2,51.4,30.06,NNW,342,2.0,12.0,59,0.00,,,0.00,Wunderground v.1.15,2013-08-05 16:34:00,
2013-08-05 12:39:00,66.4,48.2,30.06,WNW,284,2.0,12.0,52,0.00,,,0.00,Wunderground v.1.15,2013-08-05 16:39:00,
2013-08-05 12:44:00,65.8,48.7,30.06,WNW,284,3.0,12.0,54,0.00,,,0.00,Wunderground v.1.15,2013-08-05 16:44:00,
2013-08-05 12:50:00,66.3,49.6,30.06,NNW,342,4.0,4.0,55,0.00,,,0.00,Wunderground v.1.15,2013-08-05 16:50:00,
2013-08-05 12:55:00,66.6,50.9,30.06,NW,325,3.0,12.0,57,0.00,,,0.00,Wunderground v.1.15,2013-08-05 16:55:00,
2013-08-05 12:59:00,66.6,50.9,30.06,WNW,285,2.0,2.0,57,0.00,,,0.00,Wunderground v.1.15,2013-08-05 16:59:00,
2013-08-05 13:04:00,66.8,48.6,30.06,NW,317,3.0,12.0,52,0.00,,,0.00,Wunderground v.1.15,2013-08-05 17:04:00,
2013-08-05 13:10:00,67.0,51.7,30.06,NW,321,2.0,12.0,58,0.00,,,0.00,Wunderground v.1.15,2013-08-05 17:10:00,
2013-08-05 13:15:00,67.3,49.1,30.06,NNW,342,2.0,12.0,52,0.00,,,0.00,Wunderground v.1.15,2013-08-05 17:15:00,
2013-08-05 13:21:00,67.2,50.0,30.05,NW,314,2.0,4.0,54,0.00,,,0.00,Wunderground v.1.15,2013-08-05 17:21:00,
2013-08-05 13:26:00,67.4,50.2,30.05,NW,315,2.0,12.0,54,0.00,,,0.00,Wunderground v.1.15,2013-08-05 17:26:00,
2013-08-05 13:31:00,67.9,51.6,30.05,WNW,288,2.0,12.0,56,0.00,,,0.00,Wunderground v.1.15,2013-08-05 17:31:00,
2013-08-05 13:36:00,68.1,49.8,30.05,West,279,2.0,12.0,52,0.00,,,0.00,Wunderground v.1.15,2013-08-05 17:36:00,
2013-08-05 13:41:00,67.4,51.2,30.05,WNW,292,3.0,12.0,56,0.00,,,0.00,Wunderground v.1.15,2013-08-05 17:41:00,
2013-08-05 13:45:00,67.7,52.4,30.05,West,277,3.0,12.0,58,0.00,,,0.00,Wunderground v.1.15,2013-08-05 17:45:00,
2013-08-05 13:52:00,67.3,46.9,30.05,West,281,3.0,12.0,48,0.00,,,0.00,Wunderground v.1.15,2013-08-05 17:52:00,
2013-08-05 13:57:00,67.5,51.2,30.05,NNW,342,3.0,12.0,56,0.00,,,0.00,Wunderground v.1.15,2013-08-05 17:57:00,
2013-08-05 14:02:00,68.1,49.8,30.05,NNW,333,2.0,12.0,52,0.00,,,0.00,Wunderground v.1.15,2013-08-05 18:02:00,
2013-08-05 14:07:00,68.3,50.5,30.05,NNE,29,2.0,12.0,53,0.00,,,0.00,Wunderground v.1.15,2013-08-05 18:07:00,
2013-08-05 14:12:00,68.2,47.8,30.05,NNW,328,2.0,12.0,48,0.00,,,0.00,Wunderground v.1.15,2013-08-05 18:12:00,
2013-08-05 14:18:00,68.3,48.4,30.05,NW,307,2.0,12.0,49,0.00,,,0.00,Wunderground v.1.15,2013-08-05 18:18:00,
2013-08-05 14:23:00,68.5,47.5,30.05,SSW,198,2.0,12.0,47,0.00,,,0.00,Wunderground v.1.15,2013-08-05 18:23:00,
2013-08-05 14:28:00,68.3,50.0,30.05,WNW,298,2.0,12.0,52,0.00,,,0.00,Wunderground v.1.15,2013-08-05 18:28:00,
2013-08-05 14:33:00,68.5,49.7,30.05,WNW,285,2.0,12.0,51,0.00,,,0.00,Wunderground v.1.15,2013-08-05 18:33:00,
2013-08-05 14:38:00,68.3,48.9,30.05,SW,225,2.0,12.0,50,0.00,,,0.00,Wunderground v.1.15,2013-08-05 18:38:00,
2013-08-05 14:44:00,68.7,49.8,30.04,West,264,2.0,12.0,51,0.00,,,0.00,Wunderground v.1.15,2013-08-05 18:44:00,
2013-08-05 14:49:00,68.6,50.8,30.04,WNW,288,2.0,12.0,53,0.00,,,0.00,Wunderground v.1.15,2013-08-05 18:49:00,
2013-08-05 14:54:00,69.0,52.2,30.04,West,274,3.0,12.0,55,0.00,,,0.00,Wunderground v.1.15,2013-08-05 18:54:00,
2013-08-05 14:59:00,69.2,51.3,30.04,West,264,3.0,12.0,53,0.00,,,0.00,Wunderground v.1.15,2013-08-05 18:59:00,
2013-08-05 15:04:00,69.2,50.3,30.04,WNW,285,2.0,12.0,51,0.00,,,0.00,Wunderground v.1.15,2013-08-05 19:04:00,
2013-08-05 15:09:00,69.1,48.6,30.04,NW,313,2.0,12.0,48,0.00,,,0.00,Wunderground v.1.15,2013-08-05 19:09:00,
2013-08-05 15:15:00,69.6,53.7,30.03,West,268,2.0,12.0,57,0.00,,,0.00,Wunderground v.1.15,2013-08-05 19:15:00,
2013-08-05 15:21:00,69.5,47.2,30.03,NE,34,2.0,12.0,45,0.00,,,0.00,Wunderground v.1.15,2013-08-05 19:21:00,
2013-08-05 15:26:00,69.2,50.3,30.03,NW,321,2.0,12.0,51,0.00,,,0.00,Wunderground v.1.15,2013-08-05 19:26:00,
2013-08-05 15:31:00,69.0,47.9,30.03,West,277,2.0,12.0,47,0.00,,,0.00,Wunderground v.1.15,2013-08-05 19:31:00,
2013-08-05 15:36:00,68.7,48.2,30.03,NW,309,2.0,12.0,48,0.00,,,0.00,Wunderground v.1.15,2013-08-05 19:36:00,
2013-08-05 15:41:00,69.4,51.5,30.03,NNW,333,2.0,12.0,53,0.00,,,0.00,Wunderground v.1.15,2013-08-05 19:41:00,
2013-08-05 15:46:00,69.6,50.7,30.03,WNW,284,2.0,12.0,51,0.00,,,0.00,Wunderground v.1.15,2013-08-05 19:46:00,
2013-08-05 15:52:00,69.3,48.8,30.03,NW,315,2.0,12.0,48,0.00,,,0.00,Wunderground v.1.15,2013-08-05 19:52:00,
2013-08-05 15:57:00,68.8,48.9,30.03,WNW,285,3.0,12.0,49,0.00,,,0.00,Wunderground v.1.15,2013-08-05 19:57:00,
2013-08-05 16:02:00,68.7,49.8,30.03,WNW,291,3.0,5.0,51,0.00,,,0.00,Wunderground v.1.15,2013-08-05 20:02:00,
2013-08-05 16:07:00,68.7,50.4,30.04,NNW,337,2.0,12.0,52,0.00,,,0.00,Wunderground v.1.15,2013-08-05 20:07:00,
2013-08-05 16:13:00,69.4,51.5,30.03,WNW,292,2.0,12.0,53,0.00,,,0.00,Wunderground v.1.15,2013-08-05 20:13:00,
2013-08-05 16:18:00,69.8,50.9,30.03,NW,319,2.0,12.0,51,0.00,,,0.00,Wunderground v.1.15,2013-08-05 20:18:00,
2013-08-05 16:24:00,69.7,50.2,30.03,WNW,287,2.0,12.0,50,0.00,,,0.00,Wunderground v.1.15,2013-08-05 20:24:00,
2013-08-05 16:29:00,69.6,50.7,30.03,West,274,2.0,12.0,51,0.00,,,0.00,Wunderground v.1.15,2013-08-05 20:29:00,
2013-08-05 16:35:00,69.8,49.8,30.03,WNW,288,2.0,12.0,49,0.00,,,0.00,Wunderground v.1.15,2013-08-05 20:35:00,
2013-08-05 16:40:00,69.7,49.7,30.03,WNW,290,2.0,12.0,49,0.00,,,0.00,Wunderground v.1.15,2013-08-05 20:40:00,
2013-08-05 16:46:00,69.6,52.2,30.03,NW,308,3.0,12.0,54,0.00,,,0.00,Wunderground v.1.15,2013-08-05 20:46:00,
2013-08-05 16:51:00,69.3,49.3,30.03,North,356,3.0,12.0,49,0.00,,,0.00,Wunderground v.1.15,2013-08-05 20:51:00,
2013-08-05 16:56:00,69.3,49.9,30.03,WSW,244,3.0,12.0,50,0.00,,,0.00,Wunderground v.1.15,2013-08-05 20:56:00,
2013-08-05 17:01:00,69.2,50.8,30.03,West,267,2.0,12.0,52,0.00,,,0.00,Wunderground v.1.15,2013-08-05 21:01:00,
2013-08-05 17:06:00,69.7,52.3,30.03,North,354,2.0,12.0,54,0.00,,,0.00,Wunderground v.1.15,2013-08-05 21:06:00,
2013-08-05 17:11:00,69.8,52.4,30.03,WNW,284,2.0,12.0,54,0.00,,,0.00,Wunderground v.1.15,2013-08-05 21:11:00,
2013-08-05 17:16:00,69.9,51.5,30.03,NW,308,2.0,12.0,52,0.00,,,0.00,Wunderground v.1.15,2013-08-05 21:16:00,
2013-08-05 17:21:00,70.0,51.0,30.03,WNW,302,2.0,12.0,51,0.00,,,0.00,Wunderground v.1.15,2013-08-05 21:21:00,
2013-08-05 17:26:00,69.8,50.3,30.03,West,266,2.0,12.0,50,0.00,,,0.00,Wunderground v.1.15,2013-08-05 21:26:00,
2013-08-05 17:32:00,69.4,52.0,30.03,West,281,2.0,12.0,54,0.00,,,0.00,Wunderground v.1.15,2013-08-05 21:32:00,
2013-08-05 17:37:00,69.2,50.8,30.03,NW,304,2.0,12.0,52,0.00,,,0.00,Wunderground v.1.15,2013-08-05 21:37:00,
2013-08-05 17:42:00,68.7,49.8,30.02,WNW,288,3.0,12.0,51,0.00,,,0.00,Wunderground v.1.15,2013-08-05 21:42:00,
2013-08-05 17:47:00,68.8,49.9,30.03,NW,304,2.0,12.0,51,0.00,,,0.00,Wunderground v.1.15,2013-08-05 21:47:00,
2013-08-05 17:52:00,69.2,51.8,30.02,West,259,2.0,12.0,54,0.00,,,0.00,Wunderground v.1.15,2013-08-05 21:52:00,
2013-08-05 17:57:00,69.0,52.6,30.03,West,281,2.0,12.0,56,0.00,,,0.00,Wunderground v.1.15,2013-08-05 21:57:00,
2013-08-05 18:02:00,69.1,50.7,30.02,West,281,2.0,12.0,52,0.00,,,0.00,Wunderground v.1.15,2013-08-05 22:02:00,
2013-08-05 18:07:00,68.3,51.0,30.03,WNW,283,2.0,12.0,54,0.00,,,0.00,Wunderground v.1.15,2013-08-05 22:07:00,
2013-08-05 18:12:00,67.9,50.1,30.03,NW,308,2.0,12.0,53,0.00,,,0.00,Wunderground v.1.15,2013-08-05 22:12:00,
2013-08-05 18:18:00,67.4,50.2,30.03,NW,313,2.0,12.0,54,0.00,,,0.00,Wunderground v.1.15,2013-08-05 22:18:00,
2013-08-05 18:23:00,67.7,51.4,30.03,WNW,291,1.0,12.0,56,0.00,,,0.00,Wunderground v.1.15,2013-08-05 22:23:00,
2013-08-05 18:29:00,67.2,51.0,30.03,North,357,2.0,12.0,56,0.00,,,0.00,Wunderground v.1.15,2013-08-05 22:29:00,
2013-08-05 18:34:00,66.6,50.9,30.03,NW,318,2.0,12.0,57,0.00,,,0.00,Wunderground v.1.15,2013-08-05 22:34:00,
2013-08-05 18:39:00,65.9,50.2,30.03,NNW,345,1.0,12.0,57,0.00,,,0.00,Wunderground v.1.15,2013-08-05 22:39:00,
2013-08-05 18:44:00,65.4,50.7,30.03,West,281,1.0,12.0,59,0.00,,,0.00,Wunderground v.1.15,2013-08-05 22:44:00,
2013-08-05 18:49:00,64.9,52.0,30.04,NW,312,1.0,12.0,63,0.00,,,0.00,Wunderground v.1.15,2013-08-05 22:49:00,
2013-08-05 18:54:00,64.7,50.5,30.04,West,277,1.0,12.0,60,0.00,,,0.00,Wunderground v.1.15,2013-08-05 22:54:00,
2013-08-05 18:59:00,64.4,50.7,30.04,NW,319,1.0,12.0,61,0.00,,,0.00,Wunderground v.1.15,2013-08-05 22:59:00,
2013-08-05 19:05:00,64.3,51.4,30.04,WNW,300,1.0,12.0,63,0.00,,,0.00,Wunderground v.1.15,2013-08-05 23:05:00,
2013-08-05 19:11:00,64.2,50.9,30.04,West,262,1.0,12.0,62,0.00,,,0.00,Wunderground v.1.15,2013-08-05 23:11:00,
2013-08-05 19:16:00,64.0,50.7,30.05,WNW,284,1.0,12.0,62,0.00,,,0.00,Wunderground v.1.15,2013-08-05 23:16:00,
2013-08-05 19:21:00,63.7,50.4,30.05,WNW,283,1.0,12.0,62,0.00,,,0.00,Wunderground v.1.15,2013-08-05 23:21:00,
2013-08-05 19:26:00,63.3,52.2,30.05,WNW,282,0.0,12.0,67,0.00,,,0.00,Wunderground v.1.15,2013-08-05 23:26:00,
2013-08-05 19:31:00,62.8,51.7,30.05,WNW,283,0.0,12.0,67,0.00,,,0.00,Wunderground v.1.15,2013-08-05 23:31:00,
2013-08-05 19:37:00,62.0,52.1,30.05,WNW,284,0.0,12.0,70,0.00,,,0.00,Wunderground v.1.15,2013-08-05 23:37:00,
2013-08-05 19:42:00,61.4,51.5,30.05,WNW,283,0.0,12.0,70,0.00,,,0.00,Wunderground v.1.15,2013-08-05 23:42:00,
2013-08-05 19:47:00,60.8,51.7,30.05,WNW,282,0.0,12.0,72,0.00,,,0.00,Wunderground v.1.15,2013-08-05 23:47:00,
2013-08-05 19:52:00,60.2,51.5,30.05,WNW,283,0.0,12.0,73,0.00,,,0.00,Wunderground v.1.15,2013-08-05 23:52:00,
2013-08-05 19:57:00,59.3,51.0,30.05,WNW,284,0.0,12.0,74,0.00,,,0.00,Wunderground v.1.15,2013-08-05 23:57:00,
2013-08-05 20:02:00,58.6,50.7,30.06,WNW,283,0.0,12.0,75,0.00,,,0.00,Wunderground v.1.15,2013-08-06 00:02:00,
2013-08-05 20:08:00,57.7,51.2,30.06,WNW,283,0.0,12.0,79,0.00,,,0.00,Wunderground v.1.15,2013-08-06 00:08:00,
2013-08-05 20:13:00,56.9,50.5,30.06,WNW,283,0.0,12.0,79,0.00,,,0.00,Wunderground v.1.15,2013-08-06 00:13:00,
2013-08-05 20:19:00,56.7,50.9,30.06,WNW,284,0.0,12.0,81,0.00,,,0.00,Wunderground v.1.15,2013-08-06 00:19:00,
2013-08-05 20:24:00,56.4,51.0,30.06,WNW,284,0.0,12.0,82,0.00,,,0.00,Wunderground v.1.15,2013-08-06 00:24:00,
2013-08-05 20:29:00,56.1,50.7,30.06,WNW,283,0.0,12.0,82,0.00,,,0.00,Wunderground v.1.15,2013-08-06 00:29:00,
2013-08-05 20:34:00,55.8,51.0,30.06,WNW,283,0.0,12.0,84,0.00,,,0.00,Wunderground v.1.15,2013-08-06 00:34:00,
2013-08-05 20:39:00,55.4,51.0,30.06,WNW,283,0.0,12.0,85,0.00,,,0.00,Wunderground v.1.15,2013-08-06 00:39:00,
2013-08-05 20:44:00,55.1,51.3,30.06,WNW,283,0.0,12.0,87,0.00,,,0.00,Wunderground v.1.15,2013-08-06 00:44:00,
2013-08-05 20:50:00,54.7,51.2,30.06,WNW,283,0.0,12.0,88,0.00,,,0.00,Wunderground v.1.15,2013-08-06 00:50:00,
2013-08-05 20:55:00,54.4,50.6,30.07,WNW,283,0.0,12.0,87,0.00,,,0.00,Wunderground v.1.15,2013-08-06 00:55:00,
2013-08-05 21:00:00,53.9,50.1,30.07,WNW,283,0.0,12.0,87,0.00,,,0.00,Wunderground v.1.15,2013-08-06 01:00:00,
2013-08-05 21:05:00,53.5,50.0,30.07,WNW,284,0.0,12.0,88,0.00,,,0.00,Wunderground v.1.15,2013-08-06 01:05:00,
2013-08-05 21:11:00,53.4,49.9,30.07,WNW,283,0.0,12.0,88,0.00,,,0.00,Wunderground v.1.15,2013-08-06 01:11:00,
2013-08-05 21:16:00,53.1,49.6,30.07,WNW,284,0.0,12.0,88,0.00,,,0.00,Wunderground v.1.15,2013-08-06 01:16:00,
2013-08-05 21:21:00,52.8,49.6,30.07,WNW,283,0.0,12.0,89,0.00,,,0.00,Wunderground v.1.15,2013-08-06 01:21:00,
2013-08-05 21:27:00,52.4,49.6,30.07,WNW,283,0.0,12.0,90,0.00,,,0.00,Wunderground v.1.15,2013-08-06 01:27:00,
2013-08-05 21:32:00,52.1,49.3,30.07,WNW,283,0.0,12.0,90,0.00,,,0.00,Wunderground v.1.15,2013-08-06 01:32:00,
2013-08-05 21:37:00,51.6,48.8,30.07,WNW,283,0.0,12.0,90,0.00,,,0.00,Wunderground v.1.15,2013-08-06 01:37:00,
2013-08-05 21:43:00,51.4,49.2,30.07,WNW,283,0.0,12.0,92,0.00,,,0.00,Wunderground v.1.15,2013-08-06 01:43:00,
2013-08-05 21:48:00,51.1,48.6,30.07,WNW,283,0.0,12.0,91,0.00,,,0.00,Wunderground v.1.15,2013-08-06 01:48:00,
2013-08-05 21:53:00,50.9,48.7,30.07,WNW,284,0.0,12.0,92,0.00,,,0.00,Wunderground v.1.15,2013-08-06 01:53:00,
2013-08-05 21:58:00,50.6,48.4,30.07,WNW,283,0.0,12.0,92,0.00,,,0.00,Wunderground v.1.15,2013-08-06 01:58:00,
2013-08-05 22:03:00,50.1,47.6,30.07,WNW,284,0.0,12.0,91,0.00,,,0.00,Wunderground v.1.15,2013-08-06 02:03:00,
2013-08-05 22:08:00,49.9,48.0,30.07,WNW,283,0.0,12.0,93,0.00,,,0.00,Wunderground v.1.15,2013-08-06 02:08:00,
2013-08-05 22:13:00,50.1,48.2,30.07,WNW,284,0.0,12.0,93,0.00,,,0.00,Wunderground v.1.15,2013-08-06 02:13:00,
2013-08-05 22:19:00,50.1,48.2,30.07,WNW,284,0.0,12.0,93,0.00,,,0.00,Wunderground v.1.15,2013-08-06 02:19:00,
2013-08-05 22:24:00,50.1,48.2,30.07,WNW,283,0.0,12.0,93,0.00,,,0.00,Wunderground v.1.15,2013-08-06 02:24:00,
2013-08-05 22:29:00,49.9,48.0,30.07,WNW,284,0.0,12.0,93,0.00,,,0.00,Wunderground v.1.15,2013-08-06 02:29:00,
2013-08-05 22:34:00,49.7,48.0,30.07,WNW,284,0.0,12.0,94,0.00,,,0.00,Wunderground v.1.15,2013-08-06 02:34:00,
2013-08-05 22:39:00,49.7,48.0,30.07,WNW,283,0.0,12.0,94,0.00,,,0.00,Wunderground v.1.15,2013-08-06 02:39:00,
2013-08-05 22:45:00,49.6,47.9,30.07,WNW,284,0.0,12.0,94,0.00,,,0.00,Wunderground v.1.15,2013-08-06 02:45:00,
2013-08-05 22:50:00,49.3,47.4,30.08,WNW,284,0.0,12.0,93,0.00,,,0.00,Wunderground v.1.15,2013-08-06 02:50:00,
2013-08-05 22:58:00,48.8,47.2,30.07,WNW,284,0.0,12.0,94,0.00,,,0.00,Wunderground v.1.15,2013-08-06 02:58:00,
2013-08-05 23:03:00,48.8,47.2,30.07,WNW,284,0.0,12.0,94,0.00,,,0.00,Wunderground v.1.15,2013-08-06 03:03:00,
2013-08-05 23:08:00,48.6,47.0,30.08,WNW,283,0.0,12.0,94,0.00,,,0.00,Wunderground v.1.15,2013-08-06 03:08:00,
2013-08-05 23:13:00,48.5,46.9,30.08,WNW,284,0.0,12.0,94,0.00,,,0.00,Wunderground v.1.15,2013-08-06 03:13:00,
2013-08-05 23:18:00,48.1,46.5,30.07,WNW,284,0.0,12.0,94,0.00,,,0.00,Wunderground v.1.15,2013-08-06 03:18:00,
2013-08-05 23:24:00,48.3,46.9,30.07,WNW,284,0.0,12.0,95,0.00,,,0.00,Wunderground v.1.15,2013-08-06 03:24:00,
2013-08-05 23:29:00,48.3,46.9,30.07,WNW,284,0.0,12.0,95,0.00,,,0.00,Wunderground v.1.15,2013-08-06 03:29:00,
2013-08-05 23:34:00,48.2,46.8,30.07,WNW,284,0.0,12.0,95,0.00,,,0.00,Wunderground v.1.15,2013-08-06 03:34:00,
2013-08-05 23:39:00,48.0,46.6,30.08,WNW,283,0.0,12.0,95,0.00,,,0.00,Wunderground v.1.15,2013-08-06 03:39:00,
2013-08-05 23:45:00,47.8,46.4,30.08,WNW,284,0.0,12.0,95,0.00,,,0.00,Wunderground v.1.15,2013-08-06 03:45:00,
2013-08-05 23:50:00,47.6,46.2,30.08,WNW,284,0.0,12.0,95,0.00,,,0.00,Wunderground v.1.15,2013-08-06 03:50:00,
2013-08-05 23:56:00,47.1,45.7,30.08,WNW,284,0.0,12.0,95,0.00,,,0.00,Wunderground v.1.15,2013-08-06 03:56:00,